THORAD AGENA D DEB, 5696

Orbit data source: Space-Track

THORAD AGENA D DEB, 5696 is space debris in SSO originally from a launch on Wed, 08 Apr 1970 UTC launched from the Air Force Western Test Range (AFWTR). Debris objects in space refer to the collection of defunct objects orbiting the Earth. Examples of debris include non-operational satellites, rocket bodies, and fragments generated from explosions, collisions, or faulty payload assembly.

Loading next visibility...
Identifier
5696, 1970-025MB
Orbit
SSO
Country
Flag of USUS
Related business
Manufacturer
Unknown
Mission
Spacecraft
Bus & Motor
Unknown
Mass
Unknown
Launch date (UTC)
1970-04-08 (56 years ago)
Launch vehicle
Unknown
Launch site
Air Force Western Test Range (AFWTR)
Object type
Payload
Rocket body
Debris
Shape & HBR
Unknown shape, 0.1 m
Radar Cross Section
Medium (>0.1 m² and <1 m²)

Expand to show TLE details & history
Last TLE update: 10 hours ago

TLE from 10 hours ago
0 THORAD AGENA D DEB
1 05696U 70025MB  26208.53442515  .00000030  00000-0  10112-3 0  9998
2 05696  99.5027 307.4212 0055438  68.8934 357.7883 13.56416340771911
Epoch: 2026-07-27T12:49Z
TLE epoch observation values (Epoch: 2026-07-27T12:49:34.332Z)
Latitude
64.98484°
Longitude
148.9037°
Altitude
1,018.735 km
Speed
7.369 km/s
True Right ascension
19h 06m 03s
True Declination
64° 51' 27"
Sunlit
Object was in daylight at epoch
Visualization orbit readout
Latitude
Unknown
Longitude
Unknown
Altitude
Unknown
Speed
Unknown
Apparent Right ascension
Unknown
Apparent Declination
Unknown
Sunlit
N/A
Visualization observer readout
Local Sidereal Time
12:21:10
Azimuth
Unknown
Elevation
Unknown
Doppler factor
Unknown
Orbital elements
Apogee altitude
1,087.185 km
Perigee altitude
1,004.869 km
Semi-major axis
7,424.164 km
Eccentricity
0.00554
Inclination
99.5027°
RAAN
307.4212°
Arg. of periapsis
68.8934°
True anomaly
357.76361°
Mean anomaly
357.7883°
Eccentric anomaly
357.77597°
Mean motion
3.39291 °/min
Orbital period
106.1 mins
BSTAR
0.00010112
Loading maneuver chart data...
Computing Atmospheric mass density...

Documentation

Showing up to 5 results
|